Regional Weather Roundup
Issued by NWS Cleveland, OH

Home | Current Version | Previous Version | Graphics & Text | Print | Product List | Glossary On
Versions: 1 2 3 4 5 6 7 8 9 10 11 12 13 14 15 16 17 18 19 20 21 22 23 24 25 26 27 28 29 30 31 32 33 34 35 36 37 38 39 40 41 42 43 44 45 46 47 48 49 50
000
ASUS41 KCLE 020210
RWRCLE
OHIO REGIONAL WEATHER ROUNDUP
NATIONAL WEATHER SERVICE WILMINGTON, OH
900 PM EST SUN MAR 01 2015

NOTE: "FAIR" INDICATES FEW OR NO CLOUDS BELOW 12,000 FEET WITH NO
SIGNIFICANT WEATHER AND/OR OBSTRUCTIONS TO VISIBILITY.

OHZ001>008-015>018-024>027-034-035-043-044-020300-
   NORTHWEST OHIO

CITY           SKY/WX    TMP DP  RH WIND       PRES   REMARKS
DEFIANCE       MOCLDY    19  16  88 W5        30.27R FOG     WCI  12
FINDLAY        MOCLDY    21  17  84 SW7       30.24R WCI  12
TOLEDO EXPRESS PTCLDY    15  13  91 SW6       30.24S FOG     WCI   6
TOLEDO EXEC    PTCLDY    16  12  84 SW6       30.25S FOG     WCI   7
LIMA           PTCLDY    24  20  84 SW7       30.24R FOG     WCI  16
$$

OHZ009>014-019>023-028>033-038-089-020300-
   NORTHEAST OHIO

CITY           SKY/WX    TMP DP  RH WIND       PRES   REMARKS
CLE-HOPKINS    CLOUDY    21  19  92 W5        30.24S FOG     WCI  15
CLE-LAKEFRONT  CLOUDY    21  19  92 SW3       30.22S
CUY CO. ARPT   CLOUDY    23  21  93 W7        30.21F WCI  15
LORAIN-ELYRIA  MOCLDY    20  19  96 W3        30.22F FOG
ASHTABULA      CLOUDY    23  19  85 W6        30.19F WCI  16
AKRON-CANTON   CLOUDY    30  27  88 W7        30.18S FOG     WCI  23
WOOSTER        CLOUDY    27  25  92 W8        30.19F FOG     WCI  19
MANSFIELD      CLOUDY    25  23  92 SW6       30.20R WCI  18
YOUNGSTOWN     CLOUDY    30  27  88 W6        30.16F FOG     WCI  24
$$

OHZ042-051>053-060>062-070>072-077>081-020300-
  SOUTHWEST OHIO

CITY           SKY/WX    TMP DP  RH WIND       PRES   REMARKS
CINC-COVINGTON CLOUDY    33  31  92 W9        30.28R FOG     WCI  25
CINC-LUNKEN    CLOUDY    34  31  88 W3        30.31S
HAMILTON       CLOUDY    33  32  96 CALM      30.30R FOG
DAYTON         CLOUDY    31  28  89 W7        30.27R FOG     WCI  24
WRIGHT-PAT AFB CLOUDY    32  30  90 W9        30.27R WCI  25
DAYTON GENERAL CLOUDY    32  31  96 W7        30.26S FOG     WCI  26
WILMINGTON     CLOUDY    32  29  88 W10       30.26R FOG     WCI  24
$$

OHZ036-037-039>041-045>050-054>059-063>069-073>076-082>088-020300-
  CENTRAL AND SOUTHEAST OHIO

CITY           SKY/WX    TMP DP  RH WIND       PRES   REMARKS
COLUMBUS       CLOUDY    32  32 100 W5        30.24R FOG     WCI  27
OSU AIRPORT    CLOUDY    32  29  88 W7        30.24R FOG     WCI  26
BOLTON FIELD   CLOUDY   N/A N/A N/A SW7       30.25R
RICKENBACK AFB CLOUDY    32  32  99 W7        30.25S FOG     WCI  26
NEWARK         CLOUDY    34  31  88 W7        30.22S FOG     WCI  28
MARION         CLOUDY    26  22  84 W6        30.24R FOG     WCI  19
LANCASTER      CLOUDY    33  31  92 W7        30.25R FOG     WCI  27
ZANESVILLE     CLOUDY    33  31  92 SW6       30.21S WCI  28
NEW PHILLY     CLOUDY    34  31  88 W3        30.21R FOG
$$



USA.gov is the U.S. government's official web portal to all federal, state and local government web resources and services.